TimeCDT,TemperatureF,Dew PointF,Humidity,Sea Level PressureIn,VisibilityMPH,Wind Direction,Wind SpeedMPH,Gust SpeedMPH,PrecipitationIn,Events,Conditions,WindDirDegrees,DateUTC
12:53 AM,66.9,63.0,87,29.82,10.0,NE,5.8,-,N/A,,Mostly Cloudy,50,2013-05-21 05:53:00
1:53 AM,66.9,63.0,87,29.80,10.0,East,5.8,-,N/A,,Overcast,90,2013-05-21 06:53:00
2:53 AM,68.0,63.0,84,29.77,10.0,ENE,6.9,-,N/A,,Overcast,70,2013-05-21 07:53:00
3:32 AM,69.1,64.0,84,29.80,10.0,ENE,4.6,-,N/A,,Overcast,60,2013-05-21 08:32:00
3:53 AM,70.0,64.9,84,29.79,10.0,East,4.6,-,N/A,,Overcast,80,2013-05-21 08:53:00
4:53 AM,69.1,66.0,90,29.82,8.0,ENE,6.9,-,0.00,,Overcast,60,2013-05-21 09:53:00
5:53 AM,66.9,64.9,93,29.81,9.0,ENE,6.9,-,0.00,,Overcast,60,2013-05-21 10:53:00
6:53 AM,66.0,63.0,90,29.82,8.0,ENE,8.1,-,N/A,,Overcast,70,2013-05-21 11:53:00
7:53 AM,66.9,63.0,87,29.81,9.0,East,6.9,-,N/A,,Overcast,80,2013-05-21 12:53:00
8:26 AM,66.9,64.0,90,29.81,9.0,East,8.1,-,N/A,,Overcast,100,2013-05-21 13:26:00
8:39 AM,68.0,64.0,87,29.81,9.0,East,9.2,-,N/A,,Overcast,100,2013-05-21 13:39:00
8:53 AM,68.0,64.9,90,29.80,9.0,East,8.1,-,N/A,,Overcast,100,2013-05-21 13:53:00
9:11 AM,69.1,64.9,87,29.82,9.0,East,10.4,-,N/A,,Overcast,100,2013-05-21 14:11:00
9:53 AM,70.0,66.0,87,29.82,8.0,ENE,5.8,-,N/A,,Overcast,70,2013-05-21 14:53:00
10:12 AM,71.1,66.9,87,29.84,8.0,ENE,5.8,-,N/A,,Overcast,70,2013-05-21 15:12:00
10:53 AM,71.1,68.0,90,29.86,8.0,North,6.9,-,0.00,,Overcast,10,2013-05-21 15:53:00
11:53 AM,64.0,59.0,84,29.88,10.0,ENE,6.9,16.1,0.03,,Overcast,60,2013-05-21 16:53:00
12:28 PM,63.0,60.1,90,29.87,1.8,ENE,12.7,-,0.14,Rain,Heavy Rain,60,2013-05-21 17:28:00
12:38 PM,63.0,60.1,90,29.87,3.0,NE,10.4,-,0.16,Rain,Light Rain,40,2013-05-21 17:38:00
12:53 PM,63.0,60.1,90,29.87,7.0,NNE,8.1,-,0.17,Rain,Light Rain,30,2013-05-21 17:53:00
1:04 PM,63.0,60.1,90,29.89,1.8,NNW,4.6,-,0.05,Rain,Rain,340,2013-05-21 18:04:00
1:35 PM,62.1,61.0,96,29.87,2.5,East,8.1,-,0.24,Rain,Rain,100,2013-05-21 18:35:00
1:53 PM,62.1,60.1,93,29.83,6.0,ESE,9.2,-,0.27,Rain,Light Rain,110,2013-05-21 18:53:00
2:53 PM,64.0,61.0,90,29.78,10.0,ESE,12.7,23.0,0.00,,Mostly Cloudy,120,2013-05-21 19:53:00
3:53 PM,64.0,61.0,90,29.76,10.0,East,5.8,-,0.00,,Overcast,80,2013-05-21 20:53:00
4:53 PM,63.0,59.0,87,29.84,1.8,North,17.3,32.2,0.15,Rain,Heavy Rain,360,2013-05-21 21:53:00
5:12 PM,62.1,59.0,90,29.89,0.8,Calm,Calm,-,0.26,Rain,Heavy Rain,0,2013-05-21 22:12:00
5:22 PM,62.1,59.0,90,29.89,2.0,NNE,6.9,-,0.32,Rain,Rain,30,2013-05-21 22:22:00
5:30 PM,62.1,59.0,90,29.85,5.0,NE,8.1,-,0.33,Rain,Rain,40,2013-05-21 22:30:00
5:53 PM,62.1,60.1,93,29.81,5.0,ENE,13.8,-,0.36,Rain,Light Rain,70,2013-05-21 22:53:00
6:53 PM,62.1,59.0,90,29.81,5.0,ENE,9.2,-,0.20,Rain,Rain,60,2013-05-21 23:53:00
7:53 PM,62.1,60.1,93,29.73,7.0,ESE,13.8,-,0.12,Rain,Rain,110,2013-05-22 00:53:00
8:50 PM,62.6,60.8,94,29.78,10.0,West,4.6,-,0.00,,Mostly Cloudy,260,2013-05-22 01:50:00
8:53 PM,62.1,60.1,93,29.76,10.0,WSW,6.9,-,0.00,,Mostly Cloudy,250,2013-05-22 01:53:00
9:53 PM,62.1,61.0,96,29.77,10.0,Calm,Calm,-,N/A,,Overcast,0,2013-05-22 02:53:00
10:01 PM,62.1,61.0,96,29.77,10.0,Calm,Calm,-,N/A,,Overcast,0,2013-05-22 03:01:00
10:53 PM,62.1,60.1,93,29.80,10.0,WNW,8.1,-,N/A,,Overcast,290,2013-05-22 03:53:00
11:53 PM,63.0,61.0,93,29.82,10.0,WNW,4.6,-,N/A,,Overcast,300,2013-05-22 04:53:00